Tracking 25195 objects as of 19-Jan-2022
HD Live streaming from Space Station
objects crossing your sky now

DMSP 5D-2 F6 DEB

Track DMSP 5D-2 F6 DEB now!
10-day predictions


NORAD ID: 40918
Int'l Code: 1982-118L
Perigee: 570.6 km
Apogee: 730.3 km
Inclination: 98.4 °
Period: 97.6 minutes
Semi major axis: 7021 km
RCS: Unknown
Launch date: December 21, 1982
Source: United States (US)
Launch site: AIR FORCE WESTERN TEST RANGE (AFWTR)

Note: This is SATELLITE DEBRIS
aabbcc
Your satellite tracking list
Your tracking list is empty




NASA's NSSDC Master Catalog

Two Line Element Set (TLE):
1 40918U 82118L   22018.80162272  .00011059  00000-0  14657-2 0  9994
2 40918  98.4247 311.7240 0113704 169.8843 190.4692 14.75584783320379
Source of the keplerian elements: AFSPC